AT627 Weather Reports


Display with metric or nautical units.
time (UTC)temp
F
wind
direction
speed
MPH
gust
MPH
rain 1hr
in
rain 24hr
in
rain mn
in
humidity
%
barometer
mb
20260504100202 44 0 1.0 2.0 0.00 0.07 0.00 63 988.3
20260504081649 45 2 1.0 2.0 0.00 0.07 0.00 60 988.4
20260504081153 45 32 1.0 2.0 0.00 0.07 0.00 59 988.4
20260504080649 45 37 2.0 3.0 0.00 0.07 0.00 59 988.4
20260504080148 44 12 1.0 3.0 0.00 0.07 0.00 60 988.3
20260504070132 44 39 0.0 1.0 0.00 0.07 0.00 63 988.4
20260504060130 44 341 1.0 2.0 0.00 0.07 0.00 64 988.5
20260504045602 45 63 1.0 2.0 0.00 0.07 0.00 63 988.6
20260504045102 45 0 1.0 2.0 0.00 0.07 0.00 63 988.6
20260504044830 45 357 1.0 2.0 0.00 0.07 0.00 62 988.5
20260504044053 45 36 0.0 2.0 0.00 0.07 0.00 62 988.6
20260504043553 45 95 1.0 2.0 0.00 0.07 0.00 64 988.6
20260504043053 45 333 1.0 2.0 0.00 0.07 0.00 61 988.5
20260504042831 45 36 1.0 2.0 0.00 0.07 0.00 60 988.4
20260504042330 44 24 1.0 2.0 0.00 0.07 0.00 62 988.4
20260504041552 44 17 0.0 2.0 0.00 0.07 0.00 62 988.3
20260504041052 44 0 1.0 3.0 0.00 0.07 0.00 63 988.3
20260504040924 44 59 0.0 2.0 0.00 0.07 0.00 62 988.2
20260504040620 45 334 1.0 3.0 0.00 0.07 0.00 62 988.2
20260504035552 45 348 0.0 1.0 0.00 0.07 0.07 63 988.3
20260504035052 45 0 0.0 2.0 0.00 0.07 0.07 64 988.2
20260504034555 45 0 1.0 2.0 0.00 0.07 0.07 61 988.1
20260504034052 45 46 1.0 3.0 0.00 0.07 0.07 62 988.2
20260504033552 45 5 1.0 3.0 0.00 0.07 0.07 63 988.2
20260504033131 45 0 1.0 2.0 0.00 0.07 0.07 63 988.0
20260504033118 45 0 0.0 2.0 0.00 0.07 0.07 64 988.2
20260504032337 46 110 1.0 3.0 0.00 0.07 0.07 61 987.9
20260504031552 46 349 1.0 3.0 0.00 0.07 0.07 60 987.9
20260504031332 46 356 1.0 3.0 0.00 0.07 0.07 60 987.9
20260504030546 46 61 1.0 2.0 0.00 0.07 0.07 60 987.9
20260504030042 46 7 1.0 2.0 0.00 0.07 0.07 60 987.9
20260504025542 46 48 1.0 2.0 0.00 0.07 0.07 60 987.9
20260504025040 46 56 1.0 2.0 0.00 0.07 0.07 60 987.9
20260504024542 46 25 0.0 2.0 0.00 0.07 0.07 60 987.9
20260504024326 46 53 1.0 2.0 0.00 0.07 0.07 59 987.9
20260504023541 46 68 1.0 2.0 0.00 0.07 0.07 59 987.9
20260504023041 46 12 1.0 2.0 0.00 0.07 0.07 59 988.0
20260504022826 46 24 1.0 2.0 0.00 0.07 0.07 59 988.0
20260504022327 47 15 1.0 2.0 0.00 0.07 0.07 59 988.0
20260504021541 47 342 1.0 2.0 0.00 0.07 0.07 57 988.0
20260504021037 47 22 1.0 2.0 0.00 0.07 0.07 58 987.9
20260504020538 47 9 1.0 2.0 0.00 0.07 0.07 58 988.0
20260504020038 47 58 1.0 2.0 0.00 0.07 0.07 59 988.0
20260504015538 47 29 1.0 2.0 0.00 0.07 0.07 59 988.0
20260504015119 47 29 1.0 2.0 0.00 0.07 0.07 56 987.9
20260504015104 47 316 1.0 2.0 0.00 0.07 0.07 57 988.0
20260504014038 47 9 2.0 3.0 0.00 0.07 0.07 56 987.8
20260504013825 47 23 2.0 3.0 0.00 0.07 0.07 57 987.8
20260504013038 48 19 1.0 2.0 0.00 0.07 0.07 57 987.7
20260504012538 48 22 1.0 2.0 0.00 0.07 0.07 56 987.7
20260504012038 48 29 1.0 2.0 0.00 0.07 0.07 56 987.7
20260504011823 48 8 1.0 2.0 0.00 0.07 0.07 56 987.7
20260504011321 49 36 1.0 2.0 0.00 0.07 0.07 54 987.6
20260504010819 49 11 2.0 3.0 0.00 0.07 0.07 54 987.5
20260504010037 49 31 2.0 3.0 0.00 0.07 0.07 55 987.5
20260504005537 49 31 1.0 2.0 0.00 0.07 0.07 54 987.5
20260504005036 49 0 1.0 2.0 0.00 0.07 0.07 53 987.5
20260504004533 49 10 1.0 2.0 0.00 0.07 0.07 52 987.5
20260504004033 49 68 1.0 2.0 0.00 0.07 0.07 53 987.4
20260504003533 50 50 0.0 2.0 0.00 0.07 0.07 52 987.3
20260504003033 50 0 0.0 2.0 0.00 0.07 0.07 51 987.2
20260504002817 51 0 0.0 2.0 0.00 0.07 0.07 50 987.1
20260504002315 51 0 0.0 2.0 0.00 0.07 0.07 48 987.1
20260504001820 52 83 1.0 2.0 0.00 0.07 0.07 48 987.0
20260504001033 53 0 1.0 2.0 0.00 0.07 0.07 47 986.9
20260504000531 53 40 1.0 4.0 0.06 0.07 0.07 46 986.9
20260504000030 54 74 1.0 4.0 0.06 0.07 0.07 44 986.8
20260503235529 54 46 1.0 4.0 0.06 0.07 0.06 44 986.8
20260503235029 55 55 1.0 4.0 0.06 0.07 0.06 42 986.7
20260503234815 55 296 1.0 5.0 0.06 0.07 0.06 41 986.7
20260503234316 55 321 2.0 5.0 0.06 0.07 0.06 41 986.7
20260503233529 56 0 2.0 4.0 0.06 0.07 0.06 39 986.6
20260503233312 56 315 1.0 6.0 0.06 0.07 0.06 40 986.6
20260503232528 56 195 2.0 6.0 0.06 0.07 0.06 38 986.6
20260503232028 56 309 2.0 7.0 0.06 0.07 0.06 38 986.6
20260503231528 57 349 3.0 7.0 0.06 0.07 0.06 37 986.6
20260503231314 57 220 3.0 7.0 0.07 0.07 0.06 37 986.6
20260503230531 0 0.0 0.0 0.00 0.00 0.00
20260503230030 0 0.0 0.0 0.00 0.00 0.00
20260503225532 0 0.0 0.0 0.00 0.00 0.00
20260503225030 0 0.0 0.0 0.00 0.00 0.00
20260503224531 0 0.0 0.0 0.00 0.00 0.00
20260503224029 0 0.0 0.0 0.00 0.00 0.00
20260503223754 0 0.0 0.0 0.00 0.00 0.00
20260503223033 0 0.0 0.0 0.00 0.00 0.00
20260503222531 0 0.0 0.0 0.00 0.00 0.00
20260503222031 59 0 2.0 5.0 0.00 0.00 0.00 36 986.4
20260503221531 59 0 2.0 6.0 0.00 0.00 0.00 36 986.4
20260503221030 59 210 2.0 6.0 0.00 0.00 0.00 35 986.4
20260503220530 59 311 3.0 11.0 0.00 0.00 0.00 35 986.5
20260503220029 59 303 3.0 11.0 0.00 0.00 0.00 34 986.5
20260503215812 59 268 3.0 9.0 0.00 0.00 0.00 33 986.5
20260503215030 59 54 3.0 9.0 0.00 0.00 0.00 33 986.5
20260503214528 60 324 2.0 9.0 0.00 0.00 0.00 34 986.6
20260503214109 59 105 2.0 6.0 0.00 0.00 0.00 34 986.5
20260503214055 59 269 2.0 6.0 0.00 0.00 0.00 35 986.5
20260503213029 58 190 2.0 8.0 0.00 0.00 0.00 34 986.5
20260503212529 58 38 3.0 8.0 0.00 0.00 0.00 35 986.5
20260503212030 58 294 3.0 8.0 0.00 0.00 0.00 34 986.5
20260503211529 58 300 4.0 9.0 0.00 0.00 0.00 34 986.5
20260503211029 58 9 3.0 9.0 0.00 0.00 0.00 33 986.3
20260503210529 58 309 3.0 9.0 0.00 0.00 0.00 36 986.5
20260503210311 57 329 3.0 7.0 0.00 0.00 0.00 34 986.4
20260503205525 57 32 3.0 7.0 0.00 0.00 0.00 35 986.4
20260503205312 57 103 3.0 7.0 0.00 0.00 0.00 35 986.5
20260503204606 58 292 3.0 10.0 0.00 0.00 0.00 34 986.5
20260503204550 58 353 3.0 9.0 0.00 0.00 0.00 35 986.4
20260503203856 57 303 3.0 7.0 0.00 0.00 0.00 34 986.5
20260503203553 57 355 3.0 10.0 0.00 0.00 0.00 34 986.4
20260503202809 57 142 4.0 8.0 0.00 0.00 0.00 36 986.6
20260503202024 57 316 4.0 8.0 0.00 0.00 0.00 35 986.6
20260503201809 57 212 3.0 8.0 0.00 0.00 0.00 34 986.5
20260503201020 57 293 3.0 8.0 0.00 0.00 0.00 35 986.7
20260503200804 57 105 4.0 10.0 0.00 0.00 0.00 39 986.8
20260503200019 57 284 4.0 10.0 0.00 0.00 0.00 35 986.9
20260503195520 57 323 3.0 11.0 0.00 0.00 0.00 35 986.8
20260503195019 57 355 4.0 11.0 0.00 0.00 0.00 38 986.8
20260503194808 57 65 3.0 11.0 0.00 0.00 0.00 37 986.9
20260503194308 58 291 2.0 11.0 0.00 0.00 0.00 39 987.1
20260503193518 57 296 3.0 7.0 0.00 0.00 0.00 40 987.0
20260503193309 56 68 4.0 8.0 0.00 0.00 0.00 38 987.1
20260503192518 56 342 4.0 11.0 0.00 0.00 0.00 40 987.1
20260503192018 55 230 3.0 11.0 0.00 0.00 0.00 40 987.1
20260503191518 54 18 3.0 9.0 0.00 0.00 0.00 41 987.3
20260503191017 54 12 3.0 12.0 0.00 0.00 0.00 41 987.4
20260503190516 55 266 4.0 12.0 0.00 0.00 0.00 38 987.4
20260503190012 55 286 4.0 12.0 0.00 0.00 0.00 39 987.4
20260503185802 55 5 4.0 9.0 0.00 0.00 0.00 38 987.5
20260503185012 55 13 3.0 9.0 0.00 0.00 0.00 38 987.6
20260503184556 54 294 4.0 10.0 0.00 0.00 0.00 38 987.6
20260503184541 54 134 3.0 10.0 0.00 0.00 0.00 40 987.6
20260503183803 54 336 4.0 9.0 0.00 0.00 0.00 40 987.6
20260503183013 54 306 3.0 9.0 0.00 0.00 0.00 40 987.6
20260503182514 54 350 3.0 8.0 0.00 0.00 0.00 41 987.6
20260503182304 54 119 3.0 9.0 0.00 0.00 0.00 41 987.7
20260503181513 54 223 3.0 9.0 0.00 0.00 0.00 41 987.8
20260503181011 53 306 3.0 9.0 0.00 0.00 0.00 40 987.7
20260503180800 53 51 3.0 9.0 0.00 0.00 0.00 38 987.7
20260503180259 53 329 3.0 8.0 0.00 0.00 0.00 41 987.7
20260503175508 54 343 3.0 8.0 0.00 0.00 0.00 39 987.7
20260503175008 53 138 4.0 11.0 0.00 0.00 0.00 37 987.7
20260503174837 53 339 4.0 9.0 0.00 0.00 0.00 38 987.8
20260503174832 53 51 4.0 11.0 0.00 0.00 0.00 38 987.8
20260503173801 52 356 3.0 7.0 0.00 0.00 0.00 40 987.9
20260503173257 52 356 3.0 7.0 0.00 0.00 0.00 39 987.8
20260503172507 53 291 3.0 7.0 0.00 0.00 0.00 40 987.9
20260503172008 52 222 4.0 10.0 0.00 0.00 0.00 43 987.9
20260503171508 52 33 4.0 10.0 0.00 0.00 0.00 40 988.0
20260503171006 52 286 3.0 10.0 0.00 0.00 0.00 38 988.0
20260503170507 52 348 3.0 10.0 0.00 0.00 0.00 39 988.1
20260503170335 52 39 4.0 8.0 0.00 0.00 0.00 40 988.1
20260503170328 52 78 4.0 10.0 0.00 0.00 0.00 41 988.1
20260503151003 49 36 4.0 11.0 0.00 0.00 0.00 48 988.7
20260503150503 48 20 3.0 10.0 0.00 0.00 0.00 49 988.6
20260503131003 46 26 3.0 8.0 0.00 0.00 0.00 59 988.6
20260503130502 46 111 2.0 6.0 0.00 0.00 0.00 62 988.6
20260503110503 42 356 1.0 2.0 0.00 0.00 0.00 64 987.6